Location: Gro�sch�nbrunn
(49.5760°N, 11.8868°E)
Time: 05:28:06
(UTC+00:00)

Lacrosse 4 Rocket - Pass Details

Date: 18 September 2020
Orbit: 543 x 615 km, 68.0° (Epoch: 20 October)

Event Time Altitude Azimuth Distance (km) Brightness Sun altitude
Rises 20:58:35 0° 327° (NNW) 2,717 6.0 -32.1°
Reaches altitude 10° 21:00:48 10° 331° (NNW) 1,823 4.8 -32.3°
Enters shadow 21:02:11 20° 335° (NNW) 1,287 3.8 -32.4°
